Terug naar catalogus

CZ-6A DEB

ActiefSSO
NORAD 56682·DEBRIS·🇨🇳 China

Gelanceerd Nov 11, 2022 vanaf Taiyuan Satellite Launch Center

Loading…

Volgende Passages (komende 24 uur)

TLE

VersSource: Space-Track

Epoch: Sep 14, 2026, 10:22 UTC

1 56682U 22151AHJ 26257.43248742  .00000608  00000-0  34747-3 0  9996
2 56682  98.8317 255.8828 0045220  66.2468 294.3437 14.12817389172723

Volg CZ-6A DEB in realtime met AllMySat

Download on the App Store